Flag for Germany Weather past 2 weeks in Kiel, Schleswig-Holstein, Germany

Now
51 °F

Clear.


Feels Like: 51 °F
Forecast: 55 / 75 °F
Wind: 1 mph from Northwest

Location: Kiel-Holtenau

Current Time: Aug 2, 2015 at 2:36:59 AM

Latest Report: Aug 2, 2015 at 2:00 AM


Visibility: 11 mi

Pressure: 30.06 "Hg

Humidity: 97%

Dew point: 50 °F

Location of KielLocation

Historic Weather in Kiel — Graph

°F

Kiel temperature yesterday

Maximum temperature yesterday: 65 °F (at 4:00 PM)
Minimum temperature yesterday: 44 °F (at 6:00 AM)
Average temperature yesterday: 56 °F

Past Weeks' High & Low Weather Summary

 TemperatureHumidityPressure
High77 °F (Jul 22, 4:00 PM)100% (Aug 1, 3:00 AM)30.10 "Hg (Aug 1, 3:00 AM)
Low44 °F (Aug 1, 6:00 AM)44% (Jul 18, 6:00 PM)29.38 "Hg (Jul 25, 3:00 PM)
Average61 °F79%29.79 "Hg
* Reported Jul 18 1:00 AM — Aug 2 1:00 AM, Kiel, Weather by CustomWeather, © 2015

Note: Actual official high and low records may vary slightly from our data, if they occured in-between our weather recording intervals... More about our weather records

Advertising

Kiel weather history for previous 24 hours

 ConditionsComfort  
Time TempWeatherWind HumidityBarometerVisibility
1:00 AM
Sun, Aug 2
52 °FPassing clouds.No wind91%30.06 "Hg22 mi
8:00 PM
Sat, Aug 1
63 °FPartly sunny.3 mph67%30.04 "Hg40 mi
7:00 PM64 °FSunny.6 mph61%30.04 "Hg22 mi
6:00 PM64 °FSunny.6 mph59%30.04 "Hg22 mi
5:00 PM64 °FSunny.6 mph61%30.04 "Hg19 mi
4:00 PM65 °FPassing clouds.7 mph63%30.05 "Hg11 mi
3:00 PM63 °FPassing clouds.7 mph62%30.06 "Hg11 mi
2:00 PM64 °FSunny.6 mph55%30.07 "Hg9 mi
1:00 PM64 °FSunny.3 mph54%30.08 "Hg12 mi
12:00 PM62 °FSunny.2 mph49%30.09 "Hg16 mi
11:00 AM62 °FSunny.2 mph55%30.09 "Hg9 mi
10:00 AM59 °FSunny.2 mph64%30.09 "Hg10 mi
9:00 AM57 °FSunny.1 mph68%30.09 "Hg19 mi
8:00 AM53 °FSunny.1 mph81%30.09 "Hg22 mi
7:00 AM48 °FSunny.No wind90%30.09 "Hg19 mi
6:00 AM44 °FSunny.1 mph96%30.09 "Hg16 mi
5:00 AM46 °FClear.1 mph99%30.09 "Hg22 mi
4:00 AM45 °FClear.1 mph99%30.09 "Hg19 mi
3:00 AM46 °FClear.1 mph100%30.10 "Hg22 mi
2:00 AM47 °FClear.1 mph99%30.10 "Hg25 mi
Weather by CustomWeather, © 2015

See weather overviewHow to use our weather pages